Weather History for Smyrna, TN

Change the Weather History Date:

Sunday, January 1, 2012

  Actual Average Record
Temperature  
Mean Temperature 48 °F -  
Max Temperature 60 °F 46 °F 69 °F (2005)
Min Temperature 37 °F 33 °F 17 °F (2002)
Degree Days  
Heating Degree Days 16    
Moisture  
Dew Point 36 °F    
Average Humidity 55    
Maximum Humidity 94    
Minimum Humidity 37    
Precipitation  
Precipitation 0.00 in - - ()
Sea Level Pressure  
Sea Level Pressure 30.10 in    
Wind  
Wind Speed 10 mph (WNW)    
Max Wind Speed 20 mph    
Max Gust Speed 29 mph    
Visibility 10 miles    
Events Rain    
Averages and records for this station are not official NWS values.
T = Trace of Precipitation, MM = Missing Value Source: NWS Daily Summary

Daily Weather History Graph

Daily Weather History Graph

Search for Another Location

Airport:

Trip Planner

Search our weather history database for the weather conditions in past years. The results will help you decide how hot, cold, wet, or windy it might be!

Date:

Astronomy

Jan. 01, 2012 Rise Set
Actual Time 6:56 AM CST 4:42 PM CST
Civil Twilight 6:28 AM CST 5:10 PM CST
Nautical Twilight 5:56 AM CST 5:42 PM CST
Astronomical Twilight 5:25 AM CST 6:14 PM CST
Moon 11:24 AM CST (1/1) No Moon Set
Length of Visible Light 10h 42m
Length of Day
9h 45m
First Quarter, 55% of the Moon is Illuminated
Jan 1
First Quarter
Jan 9
Full
Jan 16
Last Quarter
Jan 23
New
Jan 30
First Quarter

Hourly Weather History & Observations

Time (CST) Temp. Windchill Dew Point Humidity Pressure Visibility Wind Dir Wind Speed Gust Speed Precip Events Conditions
12:56 AM 54.0 °F - 34.9 °F 49% 29.96 in 10.0 mi SSW 15.0 mph - N/A   Clear
1:56 AM 54.9 °F - 36.9 °F 51% 29.97 in 10.0 mi SSW 9.2 mph - N/A   Partly Cloudy
2:56 AM 55.9 °F - 41.0 °F 57% 29.96 in 10.0 mi SSW 8.1 mph - N/A   Mostly Cloudy
3:47 AM 57.2 °F - 44.6 °F 63% 29.96 in 10.0 mi South 5.8 mph - N/A   Overcast
3:56 AM 57.9 °F - 45.0 °F 62% 29.94 in 10.0 mi SSW 4.6 mph - N/A   Overcast
4:18 AM 57.2 °F - 46.4 °F 67% 29.95 in 10.0 mi South 8.1 mph - N/A   Mostly Cloudy
4:56 AM 57.9 °F - 48.9 °F 72% 29.94 in 10.0 mi South 6.9 mph - N/A   Mostly Cloudy
5:56 AM 59.9 °F - 50.9 °F 72% 29.93 in 10.0 mi Calm Calm - N/A   Mostly Cloudy
6:28 AM 60.8 °F - 51.8 °F 72% 29.94 in 10.0 mi SW 8.1 mph - N/A   Overcast
6:56 AM 57.9 °F - 52.9 °F 83% 29.95 in 10.0 mi Calm Calm - 0.00 in Rain Light Rain
7:31 AM 57.2 °F - 55.4 °F 94% 29.97 in 10.0 mi Calm Calm - 0.00 in   Mostly Cloudy
7:56 AM 59.9 °F - 52.9 °F 78% 29.98 in 10.0 mi WNW 11.5 mph - 0.00 in   Scattered Clouds
9:56 AM 59.9 °F - 34.9 °F 39% 30.09 in 10.0 mi WNW 16.1 mph 28.8 mph N/A   Clear
10:56 AM 59.9 °F - 34.0 °F 38% 30.12 in 10.0 mi WNW 18.4 mph 26.5 mph N/A   Clear
11:56 AM 59.0 °F - 34.9 °F 40% 30.12 in 10.0 mi NNW 19.6 mph 25.3 mph N/A   Clear
12:56 PM 57.9 °F - 32.9 °F 39% 30.14 in 10.0 mi NW 19.6 mph 26.5 mph N/A   Clear
1:56 PM 57.9 °F - 32.0 °F 37% 30.14 in 10.0 mi NW 17.3 mph - N/A   Clear
2:56 PM 56.8 °F - 31.1 °F 38% 30.18 in 10.0 mi NW 18.4 mph 25.3 mph N/A   Clear
3:56 PM 54.0 °F - 30.0 °F 40% 30.20 in 10.0 mi NNW 17.3 mph - N/A   Clear
4:56 PM 48.9 °F - 28.0 °F 44% 30.23 in 10.0 mi NW 9.2 mph - N/A   Clear
5:56 PM 45.9 °F 41.2 °F 29.1 °F 52% 30.26 in 10.0 mi NW 9.2 mph - N/A   Clear
6:56 PM 41.0 °F 36.4 °F 26.1 °F 55% 30.28 in 10.0 mi NW 6.9 mph - N/A   Clear
7:56 PM 41.9 °F 35.4 °F 23.0 °F 47% 30.30 in 10.0 mi NW 11.5 mph - N/A   Clear
8:56 PM 37.9 °F 30.0 °F 22.1 °F 53% 30.31 in 10.0 mi NNW 12.7 mph - N/A   Clear
9:56 PM 41.0 °F 34.3 °F 18.1 °F 40% 30.32 in 10.0 mi NNW 11.5 mph - N/A   Clear
10:56 PM 37.9 °F 31.5 °F 19.0 °F 47% 30.33 in 10.0 mi NNW 9.2 mph - N/A   Clear
11:56 PM 37.9 °F 29.6 °F 17.1 °F 43% 30.32 in 10.0 mi NNW 13.8 mph - N/A   Clear